Location: Bavincourt
(50.2257°N, 2.5672°E)
Time: 03:28:44
(UTC+00:00)

Daily predictions for brighter satellites

Satellite Brightness Start Highest point End
(mag) Time Altitude Azimuth Time Altitude Azimuth Time Altitude Azimuth
USA 215 3.9 03:20:46 10° E 03:25:43 50° ENE 03:25:43 50° ENE
NOSS 3-3 (C) 4.5 03:44:32 78° ESE 03:44:32 78° ESE 03:52:19 10° SE
Cosmos 1943 Rocket 2.8 04:06:38 51° SE 04:07:13 54° ESE 04:12:44 10° NE
CZ-2C R/B 3.8 04:05:00 10° SE 04:10:05 41° ENE 04:13:24 20° N
CENTAUR R/B 2.7 04:16:08 56° S 04:17:18 68° SE 04:24:24 10° NE
Cosmos 2297 3.9 04:21:07 57° SSE 04:22:06 69° ESE 04:27:48 10° NNE
NOSS 3-2 (A) 3.2 04:27:49 80° SW 04:28:11 90° S 04:34:52 10° NE
Cosmos 2278 Rocket 3.6 04:33:50 25° N 04:33:50 25° N 04:36:36 10° NNE
Envisat 4.0 04:30:01 10° NNE 04:34:55 46° E 04:39:47 10° S
NOSS 3-2 (C) 3.6 04:33:35 37° SSW 04:35:49 64° SE 04:42:16 10° NE
SKYMED 2 4.1 04:32:30 10° SSE 04:36:45 57° ENE 04:37:12 54° NE
Cosmos 2098 Rocket 4.3 04:38:53 10° SSE 04:42:37 41° E 04:47:16 10° NNE
Meteor 2-3 Rocket 3.6 04:37:26 10° S 04:43:06 90° ESE 04:48:53 10° NNE
Cosmos 968 Rocket 3.6 04:42:38 19° S 04:46:16 71° ESE 04:51:24 10° NNE
Landsat 5 4.2 04:41:59 10° SSE 04:46:24 57° ENE 04:48:26 30° N
Cosmos 921 Rocket 3.1 04:50:35 67° S 04:50:35 67° S 04:54:28 10° SSE
DNEPR-1 R/B 3.9 04:53:15 58° NNW 04:54:08 77° NE 04:59:36 10° SE
Meteor 1-26 Rocket 4.2 04:53:51 38° NNW 04:56:05 65° W 05:01:48 10° S
Cosmos 1812 2.9 04:56:57 68° SE 04:56:57 68° SE 05:00:22 10° SSE
H-2A R/B 4.1 04:53:38 10° ESE 04:57:13 26° ENE 05:00:52 10° N
Cosmos 1151 Rocket 3.0 05:01:35 35° N 05:03:23 84° E 05:07:46 10° S
USA 238 DEB 3.5 05:00:10 29° SW 05:03:52 84° NW 05:10:51 10° NE
USA 238 3.5 05:00:13 28° SW 05:03:58 85° NW 05:10:57 10° NE
Cosmos 2344 3.5 05:03:34 35° WSW 05:06:47 63° NW 05:14:56 10° NE
Cosmos 1766 Rocket 4.1 05:03:04 10° S 05:07:19 59° E 05:11:35 10° NNE
USA 215 3.2 05:03:41 10° SE 05:10:11 67° SW 05:13:03 36° WNW
Kosmos-917 3.6 05:12:30 70° WNW 05:12:40 72° NW 05:17:55 10° NE
Meteor 1-31 Rocket 2.9 05:09:33 10° NNE 05:13:27 76° ESE 05:17:21 10° S
Cosmos 2279 Rocket 3.9 05:07:41 10° N 05:13:55 89° E 05:20:08 10° S
Cosmos 2297 Rocket 4.3 05:10:03 10° N 05:14:07 20° NE 05:18:11 10° E
Cosmos 1328 Rocket 3.6 05:12:41 17° N 05:16:04 81° E 05:20:25 10° SSE
IRAS Rocket 4.4 05:13:07 10° SSE 05:18:36 70° ENE 05:24:05 10° NNW
SJ-12 3.8 05:14:44 10° N 05:18:53 71° WNW 05:23:00 10° SSW
FALCON 9 DEB 3.0 05:21:07 73° SW 05:21:22 82° SSE 05:24:46 10° ENE
Cosmos 2369 Rocket 2.1 05:16:07 10° SSW 05:21:43 87° ESE 05:27:22 10° NNE
Cosmos 1862 3.3 05:19:38 10° S 05:23:35 82° E 05:27:33 10° NNE
COSMO-SKYMED 1 2.7 05:20:38 10° S 05:24:51 49° W 05:25:48 41° WNW
H-2A R/B 2.7 05:23:13 10° N 05:26:51 55° WNW 05:30:30 10° SSW
Cosmos 1634 Rocket 4.1 05:22:53 10° NNW 05:28:53 49° W 05:34:50 10° SSW
CZ-4B R/B 3.8 05:32:45 10° NNE 05:36:12 43° E 05:39:37 10° S
Lacrosse 4 Rocket 4.0 05:34:38 10° N 05:36:15 12° NNE 05:37:52 10° NE
Tsikada Rocket 4.4 05:33:20 10° SW 05:39:03 38° WNW 05:44:54 10° N
CZ-4B R/B 3.3 05:37:55 10° SE 05:40:50 28° ENE 05:43:42 10° N
YAOGAN 6 4.1 05:38:31 10° N 05:40:14 22° NNW 05:40:14 22° NNW
Cosmos 783 Rocket 4.4 05:37:36 14° NNW 05:42:10 90° SW 05:47:22 10° SSE
Cosmos 1408 Rocket 3.9 05:38:26 10° S 05:42:41 65° E 05:46:58 10° NNE
Cosmos 1656 Rocket 3.5 05:39:58 10° SSW 05:45:23 85° WNW 05:50:53 10° NNE
Gblst 52 Del rocket 4.5 05:41:33 23° W 05:45:40 84° N 05:52:46 10° E
CZ-4C R/B 3.1 05:42:48 10° S 05:45:47 40° W 05:46:01 39° W
Cosmos 1503 Rocket 4.1 05:40:36 10° SSW 05:45:53 81° ESE 05:51:15 10° NNE
DMSP B5D2-2 4.0 05:41:02 10° SSE 05:46:15 81° WSW 05:51:30 10° NNW
Cosmos 2227 Rocket 4.1 05:45:11 10° NNW 05:49:40 23° NE 05:54:08 10° E
CZ-2C R/B 3.2 05:45:25 10° SSW 05:50:26 36° W 05:54:54 12° NNW
Cosmos 1943 Rocket 2.8 05:48:15 21° W 05:51:15 34° NW 05:56:23 10° NNE
Cosmos 1486 Rocket 4.0 05:48:22 10° SW 05:53:35 57° WNW 05:58:49 10° NNE
Cosmos 1515 Rocket 3.4 05:52:00 10° NNW 05:56:23 72° W 06:00:42 10° S
SL-8 R/B 4.3 05:54:22 21° W 05:57:11 44° SSW 06:01:44 10° SE
Meteor 2-15 4.4 05:51:35 10° NNW 05:57:35 66° W 06:03:34 10° S
FALCON 9 DEB 3.0 05:56:51 34° WNW 05:57:45 50° N 06:00:36 10° ENE
Meteor 1-27 Rocket 3.7 05:53:42 10° NNW 05:59:21 87° W 06:05:05 10° S
COSMOS 2487 3.4 06:00:13 10° N 06:03:27 42° ENE 06:06:39 10° SE
Cosmos 773 Rocket 4.0 05:58:38 10° NNW 06:03:48 69° WSW 06:08:57 10° SSE
FALCON 9 DEB 3.1 06:03:16 29° WNW 06:04:22 46° N 06:07:09 10° ENE
FALCON 9 DEB 3.1 06:05:16 27° WNW 06:06:26 45° N 06:09:12 10° ENE
SJ 16-02 2.3 06:02:57 10° S 06:07:12 52° ESE 06:11:28 10° NNE
NOAA 11 4.1 06:02:17 10° N 06:07:44 68° WNW 06:13:10 10° SSW
CENTAUR R/B 3.1 06:03:21 15° W 06:08:27 43° NNW 06:15:41 10° NE
Alouette 2 Rocket 3.3 06:05:48 10° NNW 06:09:54 81° ENE 06:13:26 10° SSE
NOAA 12 4.1 06:07:37 10° NNE 06:12:56 89° W 06:18:11 10° SSW
Envisat 3.7 06:09:22 10° N 06:13:45 30° WNW 06:18:07 10° WSW
Meteor 2-19 Rocket 4.4 06:07:43 10° SSW 06:13:47 76° WNW 06:19:53 10° N
Cosmos 1340 Rocket 3.1 06:11:32 10° S 06:15:28 72° E 06:19:27 10° NNE
SL-27 R/B 2.7 06:14:04 13° NW 06:17:05 50° WSW 06:20:32 10° S
Cosmos 2278 Rocket 4.0 06:15:42 11° NW 06:17:23 12° NNW 06:19:35 10° N
Cosmos 1500 Rocket 3.6 06:14:27 10° S 06:18:55 88° E 06:23:25 10° N
Cosmos 1939 Rocket 2.7 06:15:33 10° NNE 06:19:31 84° WNW 06:23:25 10° SSW
NOSS 3-2 (A) 4.3 06:15:14 14° W 06:19:54 34° NNW 06:26:16 10° NE
FALCON 9 DEB 3.1 06:21:30 17° WNW 06:23:27 46° N 06:26:15 10° ENE
Cosmos 2098 Rocket 4.2 06:20:32 10° WSW 06:23:56 24° WNW 06:28:01 10° N
NOSS 3-2 (C) 4.0 06:21:32 10° W 06:27:07 41° NNW 06:33:38 10° NE
Okean O Rocket 3.9 06:25:59 10° NE 06:29:51 29° E 06:33:41 10° SSE
Cosmos 1805 Rocket 3.9 06:26:11 10° S 06:30:33 70° E 06:34:56 10° NNE
Sich 1 3.7 06:28:12 10° S 06:32:24 57° E 06:36:37 10° NNE
H-2A R/B 2.6 06:28:59 10° S 06:33:00 40° W 06:37:08 10° NNW
Cosmos 2026 Rocket 4.3 06:27:04 10° S 06:33:24 74° E 06:39:40 10° NNE
Meteor 1-25 Rocket 4.5 06:29:18 10° S 06:34:55 76° E 06:40:30 10° NNE
ATLAS 3B R/B 3.4 06:28:58 10° SSW 06:35:21 58° ESE 06:42:04 10° NE
ADEOS 4.1 06:33:09 10° N 06:37:54 36° WNW 06:42:37 10° SW
Cosmos 1174 3.9 06:35:43 10° SSW 06:38:37 55° ESE 06:41:44 10° NE
Cosmos 1500 4.0 06:35:19 10° S 06:39:02 56° E 06:42:48 10° NNE
ATLAS 5 CENTAUR R/B 2.1 06:35:19 10° SSW 06:39:06 58° SE 06:43:25 10° NE
Cosmos 158 Rocket 4.0 06:34:06 10° NNW 06:39:12 74° WSW 06:44:24 10° SSE
Cosmos 1515 3.9 06:41:11 10° NNW 06:44:51 49° W 06:48:32 10° S
Okean 1 3.3 06:41:53 10° N 06:45:52 87° W 06:49:49 10° S
Cosmos 1354 Rocket 4.4 06:41:10 10° SW 06:46:11 44° WNW 06:51:17 10° NNE
CZ-2C R/B 3.3 06:41:51 10° N 06:46:20 39° WNW 06:50:57 10° SW
Meteor 1-18 Rocket 4.4 06:46:08 10° NNW 06:52:04 85° ENE 06:57:50 10° SSE
USA 238 DEB 4.4 06:49:41 10° W 06:55:45 35° NNW 07:02:10 10° NE
USA 238 4.4 06:49:47 10° W 06:55:51 35° NNW 07:02:16 10° NE
